Showing default

HULIANWANG DIGUI-86, 65821

Orbit data source: Space-Track

HULIANWANG DIGUI-86, 65821 is a payload satellite owned by Zhongguo Xingwang (CN) in LEO that was launched on Sat, 27 Sep 2025 UTC via a CHANG ZHENG 6A launch vehicle from the Taiyaun Space Center, China (TSC). Payload-class satellites include a variety of spacecraft equipped with specific instruments for various scientific and technological missions. These include communications satellites like Starlink; space stations such as the ISS; scientific satellites like the Hubble; Earth observation satellites from companies like Planet Labs, Umbra, and HawkEye 360; GPS; miniature CubeSats for education and research; and military/defense satellites.

Loading next visibility...
Identifier
65821, 2025-220E
Orbit
LEO
Country
Flag of CNCN / PRC
Related business
Manufacturer
SECM
Mission
Operational Civil Communications
Bus & Motor
XINGWANG S, Unknown motor
Mass
~800 kg wet, ~800 kg dry
Launch date (UTC)
2025-09-27 (8 months ago)
Launch vehicle
CHANG ZHENG 6A
Launch site
Taiyaun Space Center, China (TSC)
Object type
Payload
Rocket body
Debris
Shape & HBR
Box + 2 Pan, 1.1 m
Radar Cross Section
5.935 m², Large (>1 m²)

Expand to show TLE details & history
Last TLE update: 4 days ago

TLE from 4 days ago
0 HULIANWANG DIGUI-86
1 65821U 25220E   26155.29109499  .00000064  00000-0  11542-3 0  9991
2 65821  86.4978  48.1878 0001771  84.6128 275.5208 13.24418661 33211
Epoch: 2026-06-04T06:59Z
TLE epoch observation values (Epoch: 2026-06-04T06:59:10.607Z)
Latitude
-0.00001°
Longitude
50.65613°
Altitude
1,170.655 km
Speed
7.268 km/s
True Right ascension
03h 12m 45s
True Declination
0° 00' 00"
Sunlit
Object was in daylight at epoch
Visualization orbit readout
Latitude
Unknown
Longitude
Unknown
Altitude
Unknown
Speed
Unknown
Apparent Right ascension
Unknown
Apparent Declination
Unknown
Sunlit
N/A
Visualization observer readout
Local Sidereal Time
03:50:49
Azimuth
Unknown
Elevation
Unknown
Doppler factor
Unknown
Orbital elements
Apogee altitude
1,166.345 km
Perigee altitude
1,163.673 km
Semi-major axis
7,543.146 km
Eccentricity
0.00018
Inclination
86.4978°
RAAN
48.1878°
Arg. of periapsis
84.6128°
True anomaly
275.5006°
Mean anomaly
275.5208°
Eccentric anomaly
275.5107°
Mean motion
3.31295 °/min
Orbital period
108.66 mins
BSTAR
0.00011542
Loading maneuver chart data...
Computing Atmospheric mass density...
Loading historical data...
Loading historical data...
Loading historical data...
Loading historical data...
Loading historical data...
Loading historical data...
Loading historical data...

Documentation

Showing up to 5 results
|